YAMAL 401               
1 40345U 14082A   19258.84778881 -.00000237  00000-0  00000-0 0  9990
2 40345   0.0107 167.2464 0001004  74.4495 147.9809  1.00270555 17184
BREEZE-M R/B            
1 40346U 14082B   19258.17517356 -.00000141  00000-0  00000-0 0  9999
2 40346   3.5862  80.6663 0611722 107.0798 260.1539  1.11335432 19091